Погода Большая Мурта

Погода Большая Мурта : погода сейчас, прогноз погоды и архив. Всё, что Вы хотите узнать о погоде Большая Мурта!

Хотите узнать прогноз погоды Большая Мурта? Тогда Вам сюда: Погода Большая Мурта

Поиск расширенной информации на нашем сайте:

Другие новости

Новости СМИ2

Главная страница сайта

Новости сайта

02.10.2013

Напоминаем, что на нашем новом сайте вы можете получить высокодетализированные прогнозы погоды по пунктам России, СНГ и мира (включающие важные для авиации метеовеличины, такие как направление и скорость ветра, видимость, явления погоды, количество и форма облачности, нижняя и верхняя граница облачности), а также ознакомиться с разнообразными материалами по авиационной метеорологии и подборкой полезных ссылок на эту тему.

Сайт Метеоцентр.Азия посвящён разработке технологий оптимизации авиаметеорологического обслуживания, включая проектирование и перспективное создание нескольких автоматизированных авиаметеорологических систем:
- система выпуска высокодетальных прогностических карт явлений погоды для нижнего воздушного пространства по России и ближнему зарубежью;
- система верификации прогнозов TAF (выпускаемых синоптиками официальных АМСГ РФ и ближнего зарубежья) и AUTOTAF (выпускаемых сайтом Метеоцентр.Азия) - выявление ошибок, онлайн-сопоставление с фактической погодой METAR, автоматическое внесение коррективов в прогнозы при резком отклонении фактической погоды от прогноза, подсчёт оправдываемости прогнозов по элементам и в целом;
- система обработки, анализа и отображения авиаметеорологической информации для применения провайдерами метеорологической информации.

Рекомендуем: промокод связной сентябрь 2015

Погода Большая Мурта - сегодня

Время (UTC), дата Ветер
(°,м/с) 
Видим.   Явления Облачность Т
(°С)
Тd
(°С)
f(%) Тe
(°С)
Pmin
(гПа)
dP
(гПа)
Po
(мм)
O2
(г/м3)
Тmin Tmax R s Состояние
почвы
15 24.03.17 тихо ()   20000 м    ясно 
-3 -6.8 75 -3  1030.9  -0.7  756  309           
18 24.03.17 тихо ()   20000 м    ясно 
-6.2 -8.9 81 -6  1030  -1  755  312           
21 24.03.17 тихо ()   20000 м    ясно 
-9.3 -10.9 88 -9  1028.9  -1.4  754  316           
00 25.03.17 тихо ()   20000 м    3/0 верхняя 
[Ci fib]
-11.2 -11.8 95 -11  1027.6  -1.4  753  317  -11.2      51  равномерный
мокрый или
старый снег
100% 
03 25.03.17 060 (СВ) 20000 м    3/0 верхняя 
[Ci fib]
-2.4 -7.2 70 -2  1025.8  -1  752  306  -11.9         
06 25.03.17 160 (Ю) 20000 м    1/0 верхняя 
[Ci fib]
+6.3 -8.4 34 +7  1021.7  -3.3  750  296           
09 25.03.17 140 (ЮВ) 20000 м    3/0 верхняя 
[Ci fib]
+9.9 -7.7 28 +10  1017.9  -3.4  747  291           
12 25.03.17 150 (ЮВ) 20000 м    6/3 2000 м средняя, верхняя 
[Ac lent|Ci fib]
+5.5 -10.3 31 +5  1016.2  -2.1  746  295    +10.7       
15 25.03.17 100 (В) 20000 м    9/6 2000 м средняя, верхняя 
[Ac As|Ci]
+3.8 -11.2 32 +5  1015.7  -0.6  745  297           
18 25.03.17 100 (В) 20000 м    10/6 600 м кучево-дожд., средняя 
[Cb cap|Ac und]
+1.6 -8.2 48 +2  1015.1  -0.8  744  299           
21 25.03.17 300 (СЗ) 20000 м    10/10 600 м кучево-дожд. 
[Cb cap]
+3.6 -6.1 49 +4  1015.5  0.6  745  297           
00 26.03.17 250 (З) 10 км    10/10 600 м кучево-дожд. 
[Cb cap]
+3.8 -1.8 67 +2  1017.3  1.8  746  297  -0.7      50  равномерный
мокрый или
старый снег
100% 
03 26.03.17 240 (ЮЗ) 4{10}  10 км  слаб. ливневой снег  10/10 600 м кучево-дожд. 
[Cb cap]
+3.3 -0.5 76 +1  1020.3  2.9  748  298           
06 26.03.17 250 (З) 4{10}  20000 м  {ливн. осадки}  10/10 600 м кучево-дожд. 
[Cb cap]
+3.8 -1.2 70 +2  1022.1  1.8  750  298           
09 26.03.17 280 (З) 20000 м  {ливн. осадки}  9/9 600 м кучево-дожд. 
[Cb cap]
+3.8 -4.8 53 +3  1023.3  1.2  751  299           
12 26.03.17 230 (ЮЗ) 20000 м  {ливн. осадки}  8/6 600 м кучево-дожд., верхняя 
[Cb cap|Ci fib]
+3.3 -5.7 52 +4  1023.7  0.3  751  300    +4.3  0.0     
15 26.03.17 200 (Ю) 20000 м    3/3 600 м кучево-дожд. 
[Cb cap]
-0.1 -5 70 -1  1023.5  -0.5  751  303           
18 26.03.17 210 (ЮЗ) 20000 м    ясно 
-1.5 -5.8 72 -1  1022.9  -0.6  750  305           
21 26.03.17 160 (Ю) 20000 м    ясно 
-6.2 -6.9 95 -6  1022.2  -1.1  749  310           
00 27.03.17 тихо ()   10 км    6/0 верхняя 
[Ci fib]
-7.8 -8.3 96 -8  1021.7  -0.7  749  311  -7.9      46  равномерный
мокрый или
старый снег
100% 
03 27.03.17 110 (В) 4000 м  дымка  6/0 верхняя 
[Ci fib]
-0.7 -5.1 72 -2  1020  -1  748  303           
06 27.03.17 080 (В) 10 км    4/0 верхняя 
[Ci fib]
+5.1 -5.3 47 +6  1017.9  -1.6  747  296           
09 27.03.17 100 (В) 20000 м    10/0 верхняя 
[Cs]
+7.7 -4.7 41 +9  1016.1  -1.6  746  293           
12 27.03.17 160 (Ю) 20000 м    10/0 верхняя 
[Cs]
+4 -2.7 62 +5  1015.6  -0.7  745  296    +8.5       
15 27.03.17 140 (ЮВ) 20000 м    8/4 2000 м средняя, верхняя 
[Ac lent|Ci fib]
-0.6 -3.8 79 1017.5  1.4  746  302           
Время (UTC), дата Ветер
(°,м/с) 
Видим.   Явления Облачность Т
(°С)
Тd
(°С)
f(%) Тe
(°С)
Pmin
(гПа)
dP
(гПа)
Po
(мм)
O2
(г/м3)
Тmin Tmax R s Состояние
почвы

Для получения пояснительной информации подведите курсор к названию столбца.

ПОГОДА Большая Мурта - архив

Всё, что Вы хотите узнать о погоде Большая Мурта - удобно и подробно!

Выберите нужную дату (начиная с 1 января 2015* года) и нажмите кнопку "Найти".
Будут отображены архивные сводки погоды по пункту Большая Мурта, начиная с указанной даты.


Отображать данные в формате CSV (для использования в таблицах Excel)


Внимание! Наш архив погоды предназначен исключительно для личного некоммерческого использования в познавательных целях. Если Вам необходимы официальные справки о состоянии погоды (для производственных, юридических, коммерческих и т.п. целей), обращайтесь в органы Росгидромета.

*Примечание: данная дата относится к архиву по метеостанциям СССР (Россия, СНГ, Балтия).
Архив по метеостанциям Зарубежной Европы и Азии (кроме Китая) хранится 10 дней, по другим регионам земного шара (Китай, Африка, Америка, Австралия, Океания) - 1 день.

Большая Мурта - район местоположения метеостанции


Название, широта, долгота, высота метеостанции:
Большая Мурта 56.9°ш. 93.1°д. 180 м над ур. моря [Российская Федерация]

Дополнительная информация

В oтличие oт бoльшинства пoгoдных сайтoв мы публикуем пoдрoбную метеoинфoрмацию в детальнoм прoфессиoнальнoм фoрмате.

Характеристики температуры и влажнoсти вoздуха измеряются на высoте 2 м в тени вдали oт зданий и деревьев.
Скoрoсть ветра измеряется на высoте 10 м (на урoвне рoста челoвека скoрoсть ветра ниже в 1.5-2 раза). Если метеoстанция нахoдится в гoрoде или в лесу, тo скoрoсть ветра занижена на 2-4 м/с пo сравнению с oткрытым местoм. Скoрoсть ветра над акватoриями крупных рек и oзёр, а также на вершинах хoлмoв на 2-5 м/с выше, чем в oбычных услoвиях.
Атмoсфернoе давление в разных тoчках местнoсти мoжет значительнo oтличаться oт давления на метеoстанции, в зависимoсти oт услoвий рельефа (при пoдъёме на 10 м давление пoнижается примернo на 1 мм рт.ст.).